This demonstration page uses our WeatherBlox Daily Observations layout. Learn more.

Left ArrowRight Arrow

44.8408, -93.29828

Hourly Observations for April 2, 2019

Temp ( °F °C ) Dew Point ( °F °C ) Humidity (%) Winds ( mph kmh ) Pressure ( in mb ) Visibility ( mi km ) Precip ( " mm )
12:53 am 00:53 Cloudy 36 2.2 24 -4.4 62 62 W 8 13 30.02 1017 10 16 0.00 0.00
1:53 am 01:53 Cloudy 35 1.7 24 -4.4 64 64 WNW 7 11 30.01 1016 10 16 0.00 0.00
2:53 am 02:53 Mostly Cloudy 34 1.1 25 -3.9 70 70 W 6 9 30.00 1016 10 16 0.00 0.00
3:53 am 03:53 Clear 32 0 25 -3.9 75 75 WSW 6 9 30.00 1016 10 16 0.00 0.00
4:53 am 04:53 Clear 31 -0.6 26 -3.3 82 82 SW 7 11 29.98 1015 10 16 0.00 0.00
5:53 am 05:53 Clear 31 -0.6 27 -2.8 85 85 WSW 7 11 29.98 1015 10 16 0.00 0.00
6:53 am 06:53 Mostly Sunny 30 -1.1 26 -3.3 85 85 SW 7 11 29.98 1015 10 16 0.00 0.00
7:53 am 07:53 Partly Cloudy 32 0 27 -2.8 82 82 SW 9 15 29.97 1015 10 16 0.00 0.00
8:53 am 08:53 Mostly Cloudy 35 1.7 28 -2.2 76 76 SW 10 17 29.96 1014 10 16 0.00 0.00
9:53 am 09:53 Mostly Cloudy 39 3.9 28 -2.2 65 65 SW 10 17 29.93 1014 10 16 0.00 0.00
10:53 am 10:53 Mostly Cloudy 42 5.6 28 -2.2 58 58 WSW 17 28 29.92 1013 10 16 0.00 0.00
11:53 am 11:53 Mostly Cloudy 45 7.2 29 -1.7 54 54 WSW 15 24 29.90 1013 10 16 0.00 0.00
12:53 pm 12:53 Mostly Cloudy 49 9.4 31 -0.6 50 50 WSW 18 30 29.89 1012 10 16 0.00 0.00
1:53 pm 13:53 Cloudy 46 7.8 33 0.6 61 61 W 20 31 29.88 1012 10 16 0.00 0.00
2:53 pm 14:53 Mostly Cloudy 47 8.3 33 0.6 59 59 W 21 33 29.87 1011 10 16 0.00 0.00
3:53 pm 15:53 Mostly Cloudy 48 8.9 32 0 54 54 W 20 31 29.88 1012 10 16 0.00 0.00
4:53 pm 16:53 Mostly Cloudy 46 7.8 34 1.1 63 63 W 18 30 29.87 1012 10 16 0.00 0.03
5:26 pm 17:26 Cloudy with Severe Storms 44 6.7 34 1.1 68 68 WNW 28 44 29.88 1012 8 13 0.00 0.03
5:30 pm 17:30 Cloudy with Rain 43 6.1 34 1.1 71 71 W 24 39 29.88 1012 8 13 0.00 0.03
5:53 pm 17:53 Partly Cloudy 43 6.1 33 0.6 68 68 NW 28 44 29.90 1013 10 16 0.02 0.51
6:53 pm 18:53 Partly Cloudy 42 5.6 29 -1.7 60 60 NW 21 33 29.93 1014 10 16 0.00 0.00
7:53 pm 19:53 Partly Cloudy 41 5 26 -3.3 55 55 WNW 20 31 29.95 1014 10 16 0.00 0.00
8:53 pm 20:53 Mostly Clear 39 3.9 23 -5 53 53 WNW 16 26 29.99 1016 10 16 0.00 0.00
9:53 pm 21:53 Partly Cloudy 38 3.3 22 -5.6 52 52 WNW 15 24 30.03 1017 10 16 0.00 0.00
10:53 pm 22:53 Mostly Clear 35 1.7 20 -6.7 54 54 NW 14 22 30.07 1018 10 16 0.00 0.00
11:53 pm 23:53 Clear 34 1.1 19 -7.2 54 54 WNW 6 9 30.07 1018 10 16 0.00 0.00

Powered by AerisWeather